Tulsa, OK

3:02 AM CDT on July 26, 2016 (GMT -0500)
Tulsa International

Weather History for KTUL - November, 2012

Change the Weather History Date:

Monday, November 12, 2012

  Actual Average Record
Temperature  
Mean Temperature 40 °F 52 °F  
Max Temperature 53 °F 63 °F 83 °F (1999)
Min Temperature 26 °F 41 °F 15 °F (1911)
Degree Days  
Heating Degree Days 25 13  
Month to date heating degree days 109 133  
Since 1 July heating degree days 326 319  
Moisture  
Dew Point 25 °F    
Average Humidity 59    
Maximum Humidity 85    
Minimum Humidity 32    
Precipitation  
Precipitation 0.00 in 0.10 in 2.64 in (1972)
Month to date precipitation 0.81 1.29  
Year to date precipitation 27.59 36.96  
Sea Level Pressure  
Sea Level Pressure 30.45 in    
Wind  
Wind Speed 4 mph (West)    
Max Wind Speed 13 mph    
Max Gust Speed 17 mph    
Visibility 10 miles    
Events      
T = Trace of Precipitation, MM = Missing Value Source: NWS Daily Summary

Daily Weather History Graph

Daily Weather History Graph

Search for Another Location

Airport or City:

Trip Planner

Search our weather history database for the weather conditions in past years. The results will help you decide how hot, cold, wet, or windy it might be!

Date:

Astronomy

Nov. 12, 2012 Rise Set
Actual Time 6:57 AM CST 5:17 PM CST
Civil Twilight 6:30 AM CST 5:44 PM CST
Nautical Twilight 5:59 AM CST 6:15 PM CST
Astronomical Twilight 5:29 AM CST 6:45 PM CST
Moon 5:26 AM CST (11/12) 4:22 PM CST (11/12)
Length of Visible Light 11h 13m
Length of Day
10h 19m
Waning Crescent, 2% of the Moon is Illuminated
Nov 12
Waning Crescent
Nov 13
New
Nov 20
First Quarter
Nov 28
Full
Dec 6
Last Quarter

Hourly Weather History & Observations

Time (CST) Temp. Windchill Dew Point Humidity Pressure Visibility Wind Dir Wind Speed Gust Speed Precip Events Conditions
12:53 AM 30.9 °F 27.5 °F 26.1 °F 82% 30.33 in 10.0 mi WNW 3.5 mph - N/A   Clear
1:53 AM 30.0 °F 25.2 °F 25.0 °F 82% 30.35 in 10.0 mi NNW 4.6 mph - N/A   Clear
2:53 AM 28.9 °F - 24.1 °F 82% 30.38 in 10.0 mi Calm Calm - N/A   Clear
3:53 AM 28.0 °F 24.2 °F 23.0 °F 81% 30.40 in 10.0 mi NNW 3.5 mph - N/A   Clear
4:53 AM 30.9 °F - 24.1 °F 76% 30.41 in 10.0 mi Calm Calm - N/A   Clear
5:53 AM 28.0 °F - 24.1 °F 85% 30.43 in 10.0 mi Calm Calm - N/A   Clear
6:53 AM 28.0 °F - 23.0 °F 81% 30.45 in 10.0 mi Calm Calm - N/A   Clear
7:53 AM 32.0 °F - 26.1 °F 79% 30.46 in 10.0 mi Calm Calm - N/A   Clear
8:53 AM 37.0 °F - 27.0 °F 67% 30.48 in 10.0 mi Calm Calm - N/A   Clear
9:53 AM 41.0 °F 39.0 °F 21.0 °F 45% 30.49 in 10.0 mi Variable 3.5 mph - N/A   Clear
10:53 AM 43.0 °F 38.8 °F 23.0 °F 45% 30.50 in 10.0 mi West 6.9 mph - N/A   Clear
11:53 AM 46.0 °F 44.8 °F 23.0 °F 40% 30.48 in 10.0 mi SSW 3.5 mph - N/A   Clear
12:53 PM 48.9 °F - 21.9 °F 35% 30.46 in 10.0 mi West 10.4 mph - N/A   Clear
1:53 PM 51.1 °F - 24.1 °F 35% 30.45 in 10.0 mi WNW 12.7 mph - N/A   Clear
2:53 PM 52.0 °F - 24.1 °F 34% 30.44 in 10.0 mi WSW 3.5 mph - N/A   Clear
3:53 PM 53.1 °F - 24.1 °F 32% 30.44 in 10.0 mi WNW 11.5 mph - N/A   Clear
4:53 PM 50.0 °F - 25.0 °F 38% 30.43 in 10.0 mi WNW 5.8 mph - N/A   Clear
5:53 PM 46.0 °F 43.9 °F 25.0 °F 44% 30.45 in 10.0 mi West 4.6 mph - N/A   Clear
6:53 PM 46.4 °F 45.2 °F 24.8 °F 43% 30.44 in 10.0 mi West 3.5 mph - N/A   Clear
7:53 PM 43.0 °F 40.3 °F 27.0 °F 53% 30.46 in 10.0 mi South 4.6 mph - N/A   Clear
8:53 PM 39.0 °F - 28.0 °F 65% 30.47 in 10.0 mi Calm Calm - N/A   Clear
9:53 PM 37.0 °F - 28.9 °F 73% 30.49 in 10.0 mi Calm Calm - N/A   Clear
10:53 PM 39.9 °F 36.7 °F 28.0 °F 63% 30.49 in 10.0 mi South 4.6 mph - N/A   Clear
11:53 PM 36.0 °F - 27.0 °F 70% 30.50 in 10.0 mi Calm Calm - N/A   Clear